Location: Azul
(36.7830°S, 59.8500°W)
Time: 20:09:44
(UTC-03:00)

ISS - Pass Details

Date: 20 April 2018
Orbit: 402 x 407 km, 51.6° (Epoch: 27 April)

Event Time Altitude Azimuth Distance (km) Brightness Sun altitude
Exits shadow 06:16:00 15° 327° (NNW) 1,184 -1.8 -15.3°
Drops below altitude 10° 06:17:22 10° 350° (N) 1,461 -1.1 -15.0°
Sets 06:19:56 0° 12° (NNE) 2,310 0.2 -14.5°
